| time (UTC) | temp F | wind direction | speed MPH | gust MPH | rain 1hr in | rain 24hr in | rain mn in | humidity % | barometer mb |
| 20260508104553 | 44 | 296 | 6.0 | 11.0 | 0.00 | 0.00 | 0.00 | 95 | 1017.8 |
| 20260508104044 | 44 | 298 | 5.0 | 9.0 | 0.00 | 0.00 | 0.00 | 95 | 1017.8 |
| 20260508103549 | 44 | 315 | 6.0 | 10.0 | 0.00 | 0.00 | 0.00 | 95 | 1017.8 |
| 20260508103050 | 44 | 294 | 5.0 | 11.0 | 0.00 | 0.00 | 0.00 | 95 | 1017.7 |
| 20260508102543 | 44 | 295 | 7.0 | 11.0 | 0.00 | 0.00 | 0.00 | 95 | 1017.8 |
| 20260508102044 | 44 | 322 | 7.0 | 11.0 | 0.00 | 0.00 | 0.00 | 95 | 1017.8 |
| 20260508101553 | 44 | 300 | 7.0 | 10.0 | 0.00 | 0.00 | 0.00 | 95 | 1017.8 |
| 20260508101045 | 44 | 291 | 6.0 | 10.0 | 0.00 | 0.00 | 0.00 | 95 | 1017.7 |
| 20260508100547 | 44 | 315 | 5.0 | 9.0 | 0.00 | 0.00 | 0.00 | 95 | 1017.7 |
| 20260508100217 | 44 | 300 | 6.0 | 9.0 | 0.00 | 0.00 | 0.00 | 95 | 1017.7 |
| 20260508095544 | 44 | 298 | 5.0 | 9.0 | 0.00 | 0.00 | 0.00 | 95 | 1017.7 |
| 20260508095042 | 44 | 301 | 5.0 | 9.0 | 0.00 | 0.00 | 0.00 | 95 | 1017.7 |
| 20260508094553 | 44 | 297 | 2.0 | 4.0 | 0.00 | 0.00 | 0.00 | 95 | 1017.7 |
| 20260508094047 | 44 | 297 | 3.0 | 5.0 | 0.00 | 0.00 | 0.00 | 95 | 1017.7 |
| 20260508093543 | 44 | 296 | 3.0 | 5.0 | 0.00 | 0.00 | 0.00 | 95 | 1017.6 |
| 20260508093051 | 44 | 300 | 3.0 | 5.0 | 0.00 | 0.00 | 0.00 | 95 | 1017.6 |
| 20260508092543 | 44 | 304 | 3.0 | 5.0 | 0.00 | 0.00 | 0.00 | 95 | 1017.6 |
| 20260508092042 | 44 | 306 | 3.0 | 4.0 | 0.00 | 0.00 | 0.00 | 95 | 1017.6 |
| 20260508091604 | 44 | 306 | 3.0 | 4.0 | 0.00 | 0.00 | 0.00 | 95 | 1017.7 |
| 20260508091043 | 44 | 306 | 2.0 | 5.0 | 0.00 | 0.00 | 0.00 | 95 | 1017.7 |
| 20260508090543 | 44 | 306 | 2.0 | 5.0 | 0.00 | 0.00 | 0.00 | 95 | 1017.6 |
| 20260508090047 | 44 | 306 | 3.0 | 5.0 | 0.00 | 0.00 | 0.00 | 95 | 1017.7 |
| 20260508085543 | 45 | 300 | 3.0 | 8.0 | 0.00 | 0.00 | 0.00 | 95 | 1017.7 |
| 20260508085042 | 45 | 315 | 3.0 | 8.0 | 0.00 | 0.00 | 0.00 | 95 | 1017.7 |
| 20260508084548 | 45 | 304 | 4.0 | 8.0 | 0.00 | 0.00 | 0.00 | 95 | 1017.8 |
| 20260508084044 | 45 | 303 | 3.0 | 7.0 | 0.00 | 0.00 | 0.00 | 95 | 1017.8 |
| 20260508083543 | 45 | 306 | 3.0 | 9.0 | 0.00 | 0.00 | 0.00 | 95 | 1017.8 |
| 20260508083106 | 45 | 300 | 4.0 | 9.0 | 0.00 | 0.00 | 0.00 | 95 | 1017.8 |
| 20260508082543 | 45 | 298 | 5.0 | 8.0 | 0.00 | 0.00 | 0.00 | 95 | 1017.8 |
| 20260508082047 | 45 | 305 | 4.0 | 9.0 | 0.00 | 0.00 | 0.00 | 95 | 1017.8 |
| 20260508081556 | 45 | 299 | 3.0 | 9.0 | 0.00 | 0.00 | 0.00 | 95 | 1018.0 |
| 20260508081046 | 45 | 312 | 5.0 | 11.0 | 0.00 | 0.00 | 0.00 | 95 | 1018.0 |
| 20260508080543 | 45 | 318 | 5.0 | 11.0 | 0.00 | 0.00 | 0.00 | 95 | 1018.0 |
| 20260508080048 | 45 | 306 | 6.0 | 11.0 | 0.00 | 0.00 | 0.00 | 95 | 1017.9 |
| 20260508075543 | 45 | 298 | 6.0 | 10.0 | 0.00 | 0.00 | 0.00 | 95 | 1018.0 |
| 20260508075042 | 46 | 300 | 5.0 | 8.0 | 0.00 | 0.00 | 0.00 | 95 | 1018.0 |
| 20260508074548 | 46 | 298 | 4.0 | 8.0 | 0.00 | 0.00 | 0.00 | 95 | 1017.9 |
| 20260508074042 | 46 | 304 | 4.0 | 10.0 | 0.00 | 0.00 | 0.00 | 95 | 1017.9 |
| 20260508073544 | 46 | 304 | 4.0 | 11.0 | 0.00 | 0.00 | 0.00 | 95 | 1018.0 |
| 20260508073057 | 46 | 316 | 6.0 | 11.0 | 0.00 | 0.00 | 0.00 | 95 | 1018.0 |
| 20260508072544 | 46 | 298 | 6.0 | 11.0 | 0.00 | 0.00 | 0.00 | 95 | 1018.0 |
| 20260508072043 | 46 | 302 | 8.0 | 10.0 | 0.00 | 0.00 | 0.00 | 95 | 1018.0 |
| 20260508071549 | 46 | 312 | 7.0 | 10.0 | 0.00 | 0.00 | 0.00 | 95 | 1018.0 |
| 20260508071043 | 46 | 303 | 6.0 | 11.0 | 0.00 | 0.00 | 0.00 | 95 | 1018.0 |
| 20260508070543 | 46 | 323 | 7.0 | 11.0 | 0.00 | 0.00 | 0.00 | 95 | 1018.1 |
| 20260508070053 | 46 | 311 | 7.0 | 12.0 | 0.00 | 0.00 | 0.00 | 95 | 1018.0 |
| 20260508065543 | 46 | 325 | 8.0 | 12.0 | 0.00 | 0.00 | 0.00 | 95 | 1017.9 |
| 20260508065043 | 46 | 303 | 9.0 | 12.0 | 0.00 | 0.00 | 0.00 | 95 | 1018.0 |
| 20260508064555 | 46 | 309 | 8.0 | 12.0 | 0.00 | 0.00 | 0.00 | 95 | 1018.1 |
| 20260508064043 | 46 | 300 | 9.0 | 13.0 | 0.00 | 0.00 | 0.00 | 95 | 1018.1 |
| 20260508063543 | 47 | 312 | 8.0 | 13.0 | 0.00 | 0.00 | 0.00 | 95 | 1018.0 |
| 20260508063059 | 47 | 317 | 7.0 | 12.0 | 0.00 | 0.00 | 0.00 | 95 | 1018.0 |
| 20260508062542 | 47 | 308 | 7.0 | 10.0 | 0.00 | 0.00 | 0.00 | 94 | 1018.0 |
| 20260508062043 | 47 | 319 | 8.0 | 10.0 | 0.00 | 0.00 | 0.00 | 94 | 1018.1 |
| 20260508061551 | 47 | 310 | 6.0 | 9.0 | 0.00 | 0.00 | 0.00 | 94 | 1018.0 |
| 20260508061043 | 47 | 319 | 4.0 | 9.0 | 0.00 | 0.00 | 0.00 | 94 | 1018.0 |
| 20260508060544 | 47 | 306 | 6.0 | 10.0 | 0.00 | 0.00 | 0.00 | 94 | 1018.1 |
| 20260508060048 | 47 | 311 | 7.0 | 10.0 | 0.00 | 0.00 | 0.00 | 94 | 1018.1 |
| 20260508055545 | 47 | 307 | 5.0 | 8.0 | 0.00 | 0.00 | 0.00 | 94 | 1018.0 |
| 20260508055043 | 47 | 309 | 3.0 | 6.0 | 0.00 | 0.00 | 0.00 | 94 | 1018.0 |
| 20260508054553 | 47 | 324 | 4.0 | 6.0 | 0.00 | 0.00 | 0.00 | 94 | 1017.9 |
| 20260508054044 | 48 | 315 | 3.0 | 5.0 | 0.00 | 0.00 | 0.00 | 93 | 1017.9 |
| 20260508053543 | 48 | 315 | 3.0 | 6.0 | 0.00 | 0.00 | 0.00 | 94 | 1018.1 |
| 20260508053101 | 47 | 310 | 4.0 | 9.0 | 0.00 | 0.00 | 0.00 | 94 | 1017.9 |
| 20260508052543 | 48 | 320 | 5.0 | 9.0 | 0.00 | 0.00 | 0.00 | 94 | 1018.0 |
| 20260508052042 | 48 | 317 | 6.0 | 9.0 | 0.00 | 0.00 | 0.00 | 94 | 1018.0 |
| 20260508051549 | 48 | 306 | 5.0 | 8.0 | 0.00 | 0.00 | 0.00 | 94 | 1018.0 |
| 20260508051045 | 48 | 308 | 3.0 | 7.0 | 0.00 | 0.00 | 0.00 | 94 | 1017.9 |
| 20260508050543 | 48 | 315 | 3.0 | 7.0 | 0.00 | 0.00 | 0.00 | 94 | 1017.9 |
| 20260508050053 | 48 | 311 | 3.0 | 7.0 | 0.00 | 0.00 | 0.00 | 94 | 1017.8 |
| 20260508045542 | 48 | 312 | 3.0 | 7.0 | 0.00 | 0.00 | 0.00 | 94 | 1018.0 |
| 20260508045044 | 48 | 304 | 3.0 | 5.0 | 0.00 | 0.00 | 0.00 | 94 | 1017.9 |
| 20260508044549 | 48 | 307 | 3.0 | 5.0 | 0.00 | 0.00 | 0.00 | 93 | 1017.9 |
| 20260508044045 | 48 | 311 | 3.0 | 5.0 | 0.00 | 0.00 | 0.00 | 93 | 1017.9 |
| 20260508043543 | 48 | 307 | 3.0 | 5.0 | 0.00 | 0.00 | 0.00 | 93 | 1017.8 |
| 20260508043053 | 49 | 300 | 3.0 | 8.0 | 0.00 | 0.00 | 0.00 | 92 | 1017.9 |
| 20260508042542 | 49 | 304 | 3.0 | 8.0 | 0.00 | 0.00 | 0.00 | 92 | 1017.8 |
| 20260508042043 | 49 | 299 | 3.0 | 7.0 | 0.00 | 0.00 | 0.00 | 91 | 1017.9 |
| 20260508041548 | 49 | 311 | 4.0 | 7.0 | 0.00 | 0.00 | 0.00 | 90 | 1017.7 |
| 20260508041046 | 50 | 319 | 4.0 | 7.0 | 0.00 | 0.00 | 0.00 | 89 | 1017.6 |
| 20260508040543 | 51 | 304 | 3.0 | 5.0 | 0.00 | 0.00 | 0.00 | 86 | 1017.6 |
| 20260508040052 | 53 | 313 | 3.0 | 5.0 | 0.00 | 0.00 | 0.00 | 82 | 1017.6 |
| 20260508035543 | 54 | 318 | 4.0 | 8.0 | 0.00 | 0.00 | 0.00 | 79 | 1017.6 |
| 20260508035043 | 57 | 315 | 4.0 | 8.0 | 0.00 | 0.00 | 0.00 | 75 | 1017.6 |
| 20260508034552 | 59 | 312 | 5.0 | 8.0 | 0.00 | 0.00 | 0.00 | 69 | 1017.5 |
| 20260508034043 | 59 | 317 | 3.0 | 8.0 | 0.00 | 0.00 | 0.00 | 66 | 1017.5 |
| 20260508033543 | 58 | 318 | 5.0 | 8.0 | 0.00 | 0.00 | 0.00 | 67 | 1017.5 |
| 20260508033058 | 57 | 306 | 5.0 | 8.0 | 0.00 | 0.00 | 0.00 | 68 | 1017.5 |
| 20260508032544 | 56 | 321 | 4.0 | 6.0 | 0.00 | 0.00 | 0.00 | 75 | 1017.4 |
| 20260508032043 | 55 | 316 | 5.0 | 6.0 | 0.00 | 0.00 | 0.00 | 80 | 1017.4 |
| 20260508031546 | 54 | 318 | 4.0 | 6.0 | 0.00 | 0.00 | 0.00 | 81 | 1017.3 |
| 20260508031041 | 52 | 318 | 4.0 | 6.0 | 0.00 | 0.00 | 0.00 | 90 | 1017.3 |
| 20260508030540 | 52 | 317 | 3.0 | 6.0 | 0.00 | 0.00 | 0.00 | 90 | 1017.3 |
| 20260508030048 | 52 | 317 | 4.0 | 5.0 | 0.00 | 0.00 | 0.00 | 90 | 1017.2 |
| 20260508025542 | 52 | 319 | 2.0 | 4.0 | 0.00 | 0.00 | 0.00 | 89 | 1017.3 |
| 20260508025041 | 53 | 318 | 2.0 | 4.0 | 0.00 | 0.00 | 0.00 | 88 | 1017.2 |
| 20260508024557 | 54 | 318 | 2.0 | 4.0 | 0.00 | 0.00 | 0.00 | 88 | 1017.2 |
| 20260508024043 | 54 | 310 | 2.0 | 4.0 | 0.00 | 0.00 | 0.00 | 87 | 1017.2 |
| 20260508023541 | 54 | 310 | 1.0 | 4.0 | 0.00 | 0.00 | 0.00 | 87 | 1017.2 |
| 20260508023050 | 54 | 310 | 2.0 | 5.0 | 0.00 | 0.00 | 0.00 | 87 | 1017.3 |
| 20260508022540 | 55 | 310 | 2.0 | 5.0 | 0.00 | 0.00 | 0.00 | 86 | 1017.2 |
| 20260508022041 | 55 | 311 | 3.0 | 5.0 | 0.00 | 0.00 | 0.00 | 85 | 1017.2 |
| 20260508021550 | 56 | 311 | 3.0 | 5.0 | 0.00 | 0.00 | 0.00 | 85 | 1017.2 |
| 20260508021040 | 56 | 312 | 3.0 | 5.0 | 0.00 | 0.00 | 0.00 | 84 | 1017.2 |
| 20260508020547 | 56 | 316 | 3.0 | 5.0 | 0.00 | 0.00 | 0.00 | 84 | 1017.2 |
| 20260508020050 | 56 | 319 | 3.0 | 5.0 | 0.00 | 0.00 | 0.00 | 84 | 1017.3 |
| 20260508015545 | 56 | 312 | 3.0 | 8.0 | 0.00 | 0.00 | 0.00 | 83 | 1017.3 |
| 20260508015044 | 57 | 306 | 3.0 | 8.0 | 0.00 | 0.00 | 0.00 | 83 | 1017.3 |
| 20260508014600 | 57 | 314 | 5.0 | 8.0 | 0.00 | 0.00 | 0.00 | 83 | 1017.3 |
| 20260508014047 | 57 | 312 | 6.0 | 8.0 | 0.00 | 0.00 | 0.00 | 82 | 1017.3 |
| 20260508013545 | 57 | 318 | 5.0 | 8.0 | 0.00 | 0.00 | 0.00 | 82 | 1017.2 |
| 20260508013056 | 57 | 317 | 4.0 | 8.0 | 0.00 | 0.00 | 0.00 | 81 | 1017.3 |
| 20260508012550 | 58 | 319 | 4.0 | 9.0 | 0.00 | 0.00 | 0.00 | 82 | 1017.3 |
| 20260508012045 | 58 | 306 | 5.0 | 9.0 | 0.00 | 0.00 | 0.00 | 81 | 1017.4 |
| 20260508011608 | 58 | 310 | 5.0 | 8.0 | 0.00 | 0.00 | 0.00 | 81 | 1017.4 |
| 20260508011044 | 59 | 309 | 4.0 | 9.0 | 0.00 | 0.00 | 0.00 | 80 | 1017.4 |
| 20260508010544 | 59 | 310 | 5.0 | 10.0 | 0.00 | 0.00 | 0.00 | 80 | 1017.4 |
| 20260508010050 | 59 | 316 | 7.0 | 10.0 | 0.00 | 0.00 | 0.00 | 80 | 1017.5 |
| 20260508005546 | 59 | 309 | 6.0 | 10.0 | 0.00 | 0.00 | 0.00 | 79 | 1017.5 |
| 20260508005044 | 60 | 314 | 6.0 | 10.0 | 0.00 | 0.00 | 0.00 | 78 | 1017.4 |
| 20260508004556 | 60 | 313 | 7.0 | 10.0 | 0.00 | 0.00 | 0.00 | 78 | 1017.7 |
| 20260508004043 | 61 | 300 | 6.0 | 10.0 | 0.00 | 0.00 | 0.00 | 78 | 1017.7 |
| 20260508003544 | 61 | 304 | 7.0 | 10.0 | 0.00 | 0.00 | 0.00 | 78 | 1017.7 |
| 20260508003051 | 61 | 309 | 7.0 | 10.0 | 0.00 | 0.00 | 0.00 | 78 | 1017.7 |
| 20260508002545 | 61 | 311 | 6.0 | 10.0 | 0.00 | 0.00 | 0.00 | 77 | 1017.7 |
| 20260508002045 | 61 | 301 | 6.0 | 10.0 | 0.00 | 0.00 | 0.00 | 76 | 1017.6 |
| 20260508001553 | 62 | 320 | 6.0 | 10.0 | 0.00 | 0.00 | 0.00 | 76 | 1017.6 |
| 20260508001044 | 63 | 300 | 6.0 | 10.0 | 0.00 | 0.00 | 0.00 | 74 | 1017.7 |
| 20260508000546 | 63 | 311 | 5.0 | 9.0 | 0.00 | 0.00 | 0.00 | 75 | 1017.6 |
| 20260508000052 | 64 | 294 | 4.0 | 10.0 | 0.00 | 0.00 | 0.00 | 74 | 1017.6 |
| 20260507235545 | 64 | 299 | 4.0 | 10.0 | 0.00 | 0.00 | 0.00 | 73 | 1017.6 |
| 20260507235045 | 65 | 284 | 4.0 | 10.0 | 0.00 | 0.00 | 0.00 | 71 | 1017.6 |
| 20260507234553 | 66 | 302 | 6.0 | 11.0 | 0.00 | 0.00 | 0.00 | 70 | 1017.6 |
| 20260507234045 | 67 | 309 | 5.0 | 11.0 | 0.00 | 0.00 | 0.00 | 69 | 1017.7 |
| 20260507233545 | 67 | 303 | 6.0 | 11.0 | 0.00 | 0.00 | 0.00 | 68 | 1017.7 |
| 20260507233056 | 68 | 288 | 5.0 | 10.0 | 0.00 | 0.00 | 0.00 | 67 | 1017.8 |
| 20260507232544 | 69 | 309 | 4.0 | 9.0 | 0.00 | 0.00 | 0.00 | 66 | 1017.7 |
| 20260507232045 | 69 | 300 | 4.0 | 8.0 | 0.00 | 0.00 | 0.00 | 65 | 1017.7 |
| 20260507231555 | 70 | 296 | 4.0 | 8.0 | 0.00 | 0.00 | 0.00 | 66 | 1017.7 |
| 20260507231046 | 70 | 296 | 4.0 | 8.0 | 0.00 | 0.00 | 0.00 | 64 | 1017.8 |
| 20260507230546 | 70 | 293 | 4.0 | 8.0 | 0.00 | 0.00 | 0.00 | 65 | 1017.8 |
| 20260507230051 | 71 | 297 | 4.0 | 8.0 | 0.00 | 0.00 | 0.00 | 63 | 1017.8 |
| 20260507225543 | 71 | 305 | 3.0 | 8.0 | 0.00 | 0.00 | 0.00 | 63 | 1017.8 |
| 20260507225045 | 71 | 302 | 3.0 | 7.0 | 0.00 | 0.00 | 0.00 | 63 | 1017.9 |
| 20260507224550 | 71 | 298 | 3.0 | 7.0 | 0.00 | 0.00 | 0.00 | 63 | 1017.8 |
| 20260507224101 | 70 | 304 | 2.0 | 8.0 | 0.00 | 0.00 | 0.00 | 59 | 1017.8 |
| 20260507223544 | 70 | 293 | 3.0 | 8.0 | 0.00 | 0.00 | 0.00 | 62 | 1017.8 |
| 20260507223058 | 71 | 302 | 3.0 | 7.0 | 0.00 | 0.00 | 0.00 | 65 | 1017.9 |
| 20260507222545 | 70 | 294 | 3.0 | 7.0 | 0.00 | 0.00 | 0.00 | 66 | 1017.8 |
| 20260507222047 | 70 | 296 | 3.0 | 5.0 | 0.00 | 0.00 | 0.00 | 65 | 1018.0 |
| 20260507221556 | 70 | 292 | 3.0 | 6.0 | 0.00 | 0.00 | 0.00 | 65 | 1018.0 |
| 20260507221044 | 70 | 296 | 3.0 | 7.0 | 0.00 | 0.00 | 0.00 | 65 | 1018.0 |
| 20260507220543 | 70 | 292 | 3.0 | 8.0 | 0.00 | 0.00 | 0.00 | 67 | 1018.1 |
| 20260507220059 | 70 | 291 | 4.0 | 9.0 | 0.00 | 0.00 | 0.00 | 68 | 1018.1 |
| 20260507215545 | 70 | 295 | 4.0 | 9.0 | 0.00 | 0.00 | 0.00 | 68 | 1018.0 |
| 20260507215045 | 70 | 295 | 4.0 | 8.0 | 0.00 | 0.00 | 0.00 | 67 | 1018.1 |
| 20260507214556 | 70 | 289 | 4.0 | 8.0 | 0.00 | 0.00 | 0.00 | 68 | 1018.2 |
| 20260507214045 | 70 | 319 | 4.0 | 7.0 | 0.00 | 0.00 | 0.00 | 67 | 1018.1 |
| 20260507213548 | 70 | 292 | 3.0 | 7.0 | 0.00 | 0.00 | 0.00 | 67 | 1018.2 |
| 20260507213056 | 70 | 301 | 3.0 | 7.0 | 0.00 | 0.00 | 0.00 | 68 | 1018.3 |
| 20260507212546 | 70 | 315 | 4.0 | 7.0 | 0.00 | 0.00 | 0.00 | 68 | 1018.4 |
| 20260507212044 | 70 | 309 | 3.0 | 8.0 | 0.00 | 0.00 | 0.00 | 69 | 1018.4 |
| 20260507211553 | 70 | 315 | 4.0 | 8.0 | 0.00 | 0.00 | 0.00 | 68 | 1018.5 |
| 20260507211043 | 70 | 293 | 4.0 | 7.0 | 0.00 | 0.00 | 0.00 | 69 | 1018.6 |
| 20260507210544 | 70 | 307 | 3.0 | 7.0 | 0.00 | 0.00 | 0.00 | 70 | 1018.6 |
| 20260507210058 | 69 | 294 | 2.0 | 7.0 | 0.00 | 0.00 | 0.00 | 69 | 1018.6 |
| 20260507205544 | 69 | 291 | 3.0 | 7.0 | 0.00 | 0.00 | 0.00 | 70 | 1018.6 |
| 20260507205044 | 69 | 307 | 2.0 | 7.0 | 0.00 | 0.00 | 0.00 | 69 | 1018.7 |
| 20260507204552 | 69 | 316 | 2.0 | 7.0 | 0.00 | 0.00 | 0.00 | 71 | 1018.7 |
| 20260507204043 | 69 | 322 | 4.0 | 7.0 | 0.00 | 0.00 | 0.00 | 70 | 1018.7 |
| 20260507203544 | 68 | 306 | 3.0 | 7.0 | 0.00 | 0.00 | 0.00 | 73 | 1018.8 |
| 20260507203048 | 68 | 312 | 3.0 | 7.0 | 0.00 | 0.00 | 0.00 | 71 | 1018.8 |
| 20260507202542 | 68 | 321 | 3.0 | 7.0 | 0.00 | 0.00 | 0.00 | 72 | 1018.8 |
| 20260507202044 | 68 | 298 | 2.0 | 5.0 | 0.00 | 0.00 | 0.00 | 73 | 1018.8 |
| 20260507201607 | 67 | 317 | 3.0 | 5.0 | 0.00 | 0.00 | 0.00 | 73 | 1018.9 |
| 20260507201047 | 67 | 313 | 2.0 | 5.0 | 0.00 | 0.00 | 0.00 | 74 | 1018.9 |
| 20260507200546 | 67 | 316 | 3.0 | 6.0 | 0.00 | 0.00 | 0.00 | 73 | 1018.8 |
| 20260507200058 | 66 | 326 | 3.0 | 6.0 | 0.00 | 0.00 | 0.00 | 73 | 1018.8 |
| 20260507195545 | 66 | 309 | 3.0 | 6.0 | 0.00 | 0.00 | 0.00 | 74 | 1018.8 |
| 20260507195046 | 66 | 313 | 2.0 | 5.0 | 0.00 | 0.00 | 0.00 | 76 | 1018.9 |
| 20260507194557 | 65 | 322 | 2.0 | 5.0 | 0.00 | 0.00 | 0.00 | 76 | 1018.8 |
| 20260507194043 | 65 | 315 | 2.0 | 5.0 | 0.00 | 0.00 | 0.00 | 77 | 1018.8 |
| 20260507193543 | 65 | 315 | 2.0 | 5.0 | 0.00 | 0.00 | 0.00 | 76 | 1018.9 |
| 20260507193056 | 65 | 315 | 2.0 | 5.0 | 0.00 | 0.00 | 0.00 | 77 | 1019.0 |
| 20260507192547 | 64 | 317 | 2.0 | 5.0 | 0.00 | 0.00 | 0.00 | 77 | 1019.0 |
| 20260507192040 | 64 | 316 | 2.0 | 5.0 | 0.00 | 0.00 | 0.00 | 78 | 1019.1 |
| 20260507191548 | 64 | 316 | 2.0 | 5.0 | 0.00 | 0.00 | 0.00 | 78 | 1019.2 |
| 20260507191043 | 64 | 316 | 2.0 | 5.0 | 0.00 | 0.00 | 0.00 | 78 | 1019.1 |
| 20260507190543 | 63 | 317 | 3.0 | 5.0 | 0.00 | 0.00 | 0.00 | 78 | 1019.1 |
| 20260507190056 | 63 | 302 | 2.0 | 5.0 | 0.00 | 0.00 | 0.00 | 79 | 1019.2 |
| 20260507185543 | 63 | 303 | 2.0 | 5.0 | 0.00 | 0.00 | 0.00 | 79 | 1019.2 |
| 20260507185044 | 62 | 299 | 3.0 | 5.0 | 0.00 | 0.00 | 0.00 | 79 | 1019.2 |
| 20260507184601 | 62 | 313 | 2.0 | 5.0 | 0.00 | 0.00 | 0.00 | 79 | 1019.3 |
| 20260507184044 | 62 | 313 | 3.0 | 5.0 | 0.00 | 0.00 | 0.00 | 80 | 1019.3 |
| 20260507183548 | 62 | 315 | 0.0 | 4.0 | 0.00 | 0.00 | 0.00 | 80 | 1019.4 |
| 20260507183053 | 62 | 0 | 1.0 | 4.0 | 0.00 | 0.00 | 0.00 | 80 | 1019.3 |
| 20260507182545 | 61 | 323 | 2.0 | 4.0 | 0.00 | 0.00 | 0.00 | 80 | 1019.4 |
| 20260507182044 | 61 | 323 | 2.0 | 4.0 | 0.00 | 0.00 | 0.00 | 80 | 1019.3 |
| 20260507181549 | 61 | 309 | 1.0 | 4.0 | 0.00 | 0.00 | 0.00 | 81 | 1019.2 |
| 20260507181044 | 60 | 309 | 1.0 | 4.0 | 0.00 | 0.00 | 0.00 | 81 | 1019.1 |
| 20260507180545 | 60 | 329 | 1.0 | 4.0 | 0.00 | 0.00 | 0.00 | 82 | 1019.1 |
| 20260507180056 | 60 | 315 | 1.0 | 4.0 | 0.00 | 0.00 | 0.00 | 82 | 1019.1 |
| 20260507175543 | 60 | 313 | 0.0 | 4.0 | 0.00 | 0.00 | 0.00 | 82 | 1019.2 |
| 20260507175043 | 60 | 320 | 2.0 | 4.0 | 0.00 | 0.00 | 0.00 | 81 | 1019.2 |
| 20260507174604 | 60 | 327 | 2.0 | 5.0 | 0.00 | 0.00 | 0.00 | 81 | 1019.1 |
| 20260507174044 | 60 | 330 | 2.0 | 5.0 | 0.00 | 0.00 | 0.00 | 82 | 1019.1 |
| 20260507173544 | 60 | 330 | 2.0 | 4.0 | 0.00 | 0.00 | 0.00 | 81 | 1019.1 |
| 20260507173059 | 60 | 331 | 2.0 | 4.0 | 0.00 | 0.00 | 0.00 | 80 | 1019.1 |
| 20260507172547 | 61 | 0 | 0.0 | 1.0 | 0.00 | 0.00 | 0.00 | 80 | 1018.9 |
| 20260507172047 | 61 | 0 | 0.0 | 0.0 | 0.00 | 0.00 | 0.00 | 78 | 1018.9 |
| 20260507171602 | 62 | 0 | 0.0 | 0.0 | 0.00 | 0.00 | 0.00 | 78 | 1018.9 |
| 20260507171045 | 62 | 0 | 0.0 | 0.0 | 0.00 | 0.00 | 0.00 | 77 | 1018.9 |
| 20260507170544 | 62 | 0 | 0.0 | 0.0 | 0.00 | 0.00 | 0.00 | 76 | 1018.8 |
| 20260507170052 | 63 | 0 | 0.0 | 0.0 | 0.00 | 0.00 | 0.00 | 75 | 1018.9 |
| 20260507165543 | 63 | 0 | 0.0 | 0.0 | 0.00 | 0.00 | 0.00 | 75 | 1018.9 |
| 20260507165043 | 63 | 0 | 0.0 | 0.0 | 0.00 | 0.00 | 0.00 | 75 | 1018.9 |
| 20260507164552 | 63 | 0 | 0.0 | 0.0 | 0.00 | 0.00 | 0.00 | 76 | 1018.9 |
| 20260507164043 | 63 | 0 | 0.0 | 0.0 | 0.00 | 0.00 | 0.00 | 75 | 1018.8 |
| 20260507163544 | 63 | 0 | 0.0 | 0.0 | 0.00 | 0.00 | 0.00 | 75 | 1018.9 |
| 20260507163101 | 63 | 0 | 0.0 | 0.0 | 0.00 | 0.00 | 0.00 | 74 | 1018.9 |
| 20260507162543 | 63 | 0 | 0.0 | 0.0 | 0.00 | 0.00 | 0.00 | 74 | 1019.0 |
| 20260507162043 | 63 | 0 | 0.0 | 0.0 | 0.00 | 0.00 | 0.00 | 73 | 1019.0 |
| 20260507161555 | 63 | 0 | 0.0 | 0.0 | 0.00 | 0.00 | 0.00 | 73 | 1019.0 |
| 20260507161044 | 63 | 0 | 0.0 | 0.0 | 0.00 | 0.00 | 0.00 | 72 | 1018.9 |
| 20260507160543 | 64 | 0 | 0.0 | 0.0 | 0.00 | 0.00 | 0.00 | 72 | 1018.9 |
| 20260507160055 | 64 | 0 | 0.0 | 0.0 | 0.00 | 0.00 | 0.00 | 72 | 1018.8 |
| 20260507155543 | 64 | 0 | 0.0 | 0.0 | 0.00 | 0.00 | 0.00 | 75 | 1018.9 |
| 20260507155043 | 64 | 0 | 0.0 | 0.0 | 0.00 | 0.00 | 0.00 | 75 | 1018.9 |
| 20260507154554 | 63 | 0 | 0.0 | 0.0 | 0.00 | 0.00 | 0.00 | 75 | 1018.9 |
| 20260507154044 | 63 | 0 | 0.0 | 0.0 | 0.00 | 0.00 | 0.00 | 74 | 1018.9 |
| 20260507153543 | 63 | 0 | 0.0 | 0.0 | 0.00 | 0.00 | 0.00 | 74 | 1018.9 |
| 20260507153051 | 63 | 0 | 0.0 | 0.0 | 0.00 | 0.00 | 0.00 | 74 | 1018.8 |
| 20260507152543 | 62 | 0 | 0.0 | 0.0 | 0.00 | 0.00 | 0.00 | 75 | 1018.7 |
| 20260507152044 | 62 | 0 | 0.0 | 0.0 | 0.00 | 0.00 | 0.00 | 76 | 1018.9 |
| 20260507151555 | 62 | 0 | 0.0 | 0.0 | 0.00 | 0.00 | 0.00 | 76 | 1018.8 |
| 20260507151043 | 61 | 0 | 0.0 | 0.0 | 0.00 | 0.00 | 0.00 | 77 | 1018.8 |
| 20260507150544 | 61 | 0 | 0.0 | 0.0 | 0.00 | 0.00 | 0.00 | 78 | 1018.8 |
| 20260507150054 | 61 | 0 | 0.0 | 0.0 | 0.00 | 0.00 | 0.00 | 79 | 1018.8 |
| 20260507145544 | 60 | 0 | 0.0 | 0.0 | 0.00 | 0.00 | 0.00 | 80 | 1018.7 |
| 20260507145043 | 59 | 0 | 0.0 | 0.0 | 0.00 | 0.00 | 0.00 | 80 | 1018.8 |
| 20260507144610 | 59 | 0 | 0.0 | 0.0 | 0.00 | 0.00 | 0.00 | 81 | 1018.8 |
| 20260507144044 | 58 | 0 | 0.0 | 0.0 | 0.00 | 0.00 | 0.00 | 81 | 1018.7 |
| 20260507143544 | 58 | 0 | 0.0 | 0.0 | 0.00 | 0.00 | 0.00 | 80 | 1018.7 |
| 20260507143055 | 57 | 0 | 0.0 | 0.0 | 0.00 | 0.00 | 0.00 | 81 | 1018.8 |
| 20260507142543 | 57 | 0 | 0.0 | 0.0 | 0.00 | 0.00 | 0.00 | 81 | 1018.7 |
| 20260507142043 | 57 | 0 | 0.0 | 2.0 | 0.00 | 0.00 | 0.00 | 81 | 1018.7 |
| 20260507141622 | 57 | 0 | 0.0 | 2.0 | 0.00 | 0.00 | 0.00 | 81 | 1018.6 |
| 20260507141043 | 56 | 0 | 0.0 | 2.0 | 0.00 | 0.00 | 0.00 | 80 | 1018.5 |
| 20260507140544 | 56 | 65 | 0.0 | 0.0 | 0.00 | 0.00 | 0.00 | 82 | 1018.6 |
| 20260507140051 | 56 | 0 | 0.0 | 0.0 | 0.00 | 0.00 | 0.00 | 87 | 1018.6 |
| 20260507135548 | 55 | 0 | 0.0 | 0.0 | 0.00 | 0.00 | 0.00 | 88 | 1018.5 |
| 20260507135045 | 55 | 0 | 0.0 | 0.0 | 0.00 | 0.00 | 0.00 | 89 | 1018.4 |
| 20260507134551 | 55 | 0 | 0.0 | 0.0 | 0.00 | 0.00 | 0.00 | 88 | 1018.6 |
| 20260507134043 | 55 | 0 | 0.0 | 0.0 | 0.00 | 0.00 | 0.00 | 88 | 1018.5 |
| 20260507133544 | 55 | 0 | 0.0 | 0.0 | 0.00 | 0.00 | 0.00 | 88 | 1018.4 |
| 20260507133052 | 55 | 0 | 0.0 | 1.0 | 0.00 | 0.00 | 0.00 | 87 | 1018.3 |
| 20260507132543 | 56 | 0 | 0.0 | 2.0 | 0.00 | 0.00 | 0.00 | 86 | 1018.2 |
| 20260507132043 | 56 | 306 | 1.0 | 2.0 | 0.00 | 0.00 | 0.00 | 85 | 1018.2 |
| 20260507131549 | 57 | 306 | 0.0 | 3.0 | 0.00 | 0.00 | 0.00 | 84 | 1018.3 |
| 20260507131043 | 57 | 306 | 0.0 | 3.0 | 0.00 | 0.00 | 0.00 | 82 | 1018.2 |
| 20260507130544 | 58 | 306 | 2.0 | 3.0 | 0.00 | 0.00 | 0.00 | 82 | 1018.2 |
| 20260507130053 | 58 | 306 | 1.0 | 3.0 | 0.00 | 0.00 | 0.00 | 81 | 1018.1 |
| 20260507125544 | 58 | 306 | 1.0 | 3.0 | 0.00 | 0.00 | 0.00 | 81 | 1018.1 |
| 20260507125044 | 58 | 306 | 1.0 | 3.0 | 0.00 | 0.00 | 0.00 | 81 | 1018.1 |
| 20260507124556 | 58 | 306 | 1.0 | 3.0 | 0.00 | 0.00 | 0.00 | 80 | 1018.0 |
| 20260507124046 | 59 | 306 | 1.0 | 3.0 | 0.00 | 0.00 | 0.00 | 80 | 1018.1 |
| 20260507123544 | 59 | 306 | 2.0 | 3.0 | 0.00 | 0.00 | 0.00 | 80 | 1018.2 |
| 20260507123054 | 58 | 306 | 1.0 | 3.0 | 0.00 | 0.00 | 0.00 | 80 | 1018.2 |
| 20260507122544 | 58 | 306 | 1.0 | 3.0 | 0.00 | 0.00 | 0.00 | 80 | 1018.2 |
| 20260507122044 | 58 | 306 | 1.0 | 3.0 | 0.00 | 0.00 | 0.00 | 80 | 1018.2 |
| 20260507121553 | 58 | 306 | 2.0 | 3.0 | 0.00 | 0.00 | 0.00 | 80 | 1018.2 |
| 20260507121043 | 58 | 306 | 2.0 | 3.0 | 0.00 | 0.00 | 0.00 | 81 | 1018.3 |
| 20260507120543 | 58 | 306 | 2.0 | 3.0 | 0.00 | 0.00 | 0.00 | 82 | 1018.3 |
| 20260507120050 | 57 | 306 | 1.0 | 3.0 | 0.00 | 0.00 | 0.00 | 82 | 1018.3 |
| 20260507115543 | 57 | 306 | 2.0 | 3.0 | 0.00 | 0.00 | 0.00 | 83 | 1018.3 |
| 20260507115043 | 57 | 306 | 2.0 | 3.0 | 0.00 | 0.00 | 0.00 | 83 | 1018.4 |
| 20260507114555 | 56 | 306 | 2.0 | 3.0 | 0.00 | 0.00 | 0.00 | 84 | 1018.4 |
| 20260507114047 | 56 | 306 | 1.0 | 3.0 | 0.00 | 0.00 | 0.00 | 85 | 1018.4 |
| 20260507113543 | 55 | 0 | 0.0 | 4.0 | 0.00 | 0.00 | 0.00 | 85 | 1018.4 |
| 20260507113056 | 55 | 306 | 2.0 | 4.0 | 0.00 | 0.00 | 0.00 | 85 | 1018.6 |
| 20260507112543 | 54 | 306 | 2.0 | 5.0 | 0.00 | 0.00 | 0.00 | 86 | 1018.6 |
| 20260507112044 | 54 | 306 | 2.0 | 5.0 | 0.00 | 0.00 | 0.00 | 87 | 1018.5 |
| 20260507111552 | 53 | 309 | 2.0 | 4.0 | 0.00 | 0.00 | 0.00 | 90 | 1018.5 |
| 20260507111047 | 53 | 309 | 2.0 | 4.0 | 0.00 | 0.00 | 0.00 | 91 | 1018.5 |
| 20260507110545 | 52 | 309 | 2.0 | 3.0 | 0.00 | 0.00 | 0.00 | 90 | 1018.6 |
| 20260507110053 | 52 | 309 | 2.0 | 3.0 | 0.00 | 0.00 | 0.00 | 90 | 1018.5 |
| 20260507105543 | 52 | 309 | 1.0 | 2.0 | 0.00 | 0.00 | 0.00 | 89 | 1018.5 |
| 20260507105047 | 53 | 309 | 1.0 | 2.0 | 0.00 | 0.00 | 0.00 | 86 | 1018.4 |